[[{"header":{"parameterUnit":"m.s-1","parameterCategory":1,"la1":30.2991,"la2":30.254,"lo1":-89.0895,"lo2":-89.0444,"dy":0.0017,"dx":0.0017,"nx":28,"ny":28,"refTime":"2023-08-29T09:00:00:Z","depth":0,"parameterNumber":2,"parameterNumberName":"U-component_of_WINDS"},"data":[0,0,0,0,0,0,0,0,0,0,0,0,0,0,0,0,0,0,0,0,0,0,0,0,0,0,0,0,0,0,0,0,0,0,0,0,0,0,0,0,0,0,0,0,0,0,0,0,0,0,0,0,0,0,0,0,0,0,-2.4637,-2.4637,0,-2.4596,-2.4595,-2.4595,-2.4496,-2.4494,-2.4492,-2.449,-2.4451,-2.4452,-2.4452,0,0,0,0,0,0,0,0,0,0,0,0,0,-2.4634,-2.4635,-2.4637,-2.4637,-2.4636,-2.4596,-2.4595,-2.4595,-2.4496,-2.4494,-2.4491,-2.4489,-2.445,-2.4451,-2.4452,0,0,0,0,0,0,0,0,0,0,0,0,0,-2.4619,-2.4635,-2.4637,-2.4582,-2.4577,-2.4596,-2.4595,-2.4595,-2.4497,-2.4494,-2.4491,-2.4488,-2.445,-2.4451,-2.4453,-2.4523,0,0,-2.4457,-2.4457,0,0,0,0,0,0,0,0,-2.462,-2.4619,-2.4591,-2.4586,-2.458,-2.4548,-2.458,-2.4571,-2.4498,-2.4527,-2.449,-2.4486,-2.4486,-2.4484,-2.4483,-2.4521,-2.4519,-2.4457,-2.4458,-2.4458,-2.4459,0,0,0,0,0,0,0,-2.4621,-2.462,-2.4621,-2.4591,-2.4584,-2.4561,-2.4555,-2.4578,-2.4525,-2.4525,-2.4517,-2.4514,-2.4482,-2.4482,-2.4481,-2.4519,-2.4457,-2.4458,-2.4459,-2.4459,-2.4614,-2.4617,0,0,0,0,0,0,-2.463,-2.4622,-2.4622,-2.462,-2.4593,-2.4563,-2.4557,-2.4561,-2.4524,-2.4515,-2.4516,-2.4509,-2.4481,-2.448,-2.448,-2.456,-2.4458,-2.4459,-2.446,-2.4611,-2.4615,-2.4618,0,0,0,0,0,0,-2.463,-2.4631,-2.4624,-2.4619,-2.4616,-2.4567,-2.4573,-2.4562,-2.4562,-2.4518,-2.4508,-2.4526,-2.4479,-2.4478,-2.4513,-2.4558,-2.446,-2.4461,-2.4607,-2.4612,-2.4617,-2.4722,0,0,0,0,0,0,-2.463,-2.4631,-2.4657,-2.462,-2.4617,-2.4657,-2.4575,-2.4564,-2.4564,-2.4554,-2.4524,-2.4516,-2.4476,-2.4512,-2.4514,-2.4558,-2.4462,-2.4603,-2.4609,-2.4615,-2.4715,-2.473,-2.4744,0,0,0,0,0,-2.4631,-2.4689,-2.4658,-2.4659,-2.4647,-2.466,-2.4658,-2.4611,-2.4568,-2.4594,-2.4566,-2.4517,-2.4552,-2.4516,-2.4518,-2.4563,-2.46,-2.4607,-2.4615,-2.4708,-2.4727,-2.4744,0,0,0,0,0,0,-2.4732,-2.4683,-2.4649,-2.4696,-2.4683,-2.4643,-2.4674,-2.4632,-2.4631,-2.4622,-2.4564,-2.4558,-2.4602,-2.4585,-2.4546,-2.463,-2.4568,-2.4576,-2.4639,-2.4656,-2.4671,-2.4674,-2.4463,0,0,0,0,0,-2.476,-2.4774,-2.473,-2.4776,-2.4771,-2.4724,-2.4728,-2.4692,-2.4677,-2.4671,-2.4645,-2.4633,-2.4641,-2.4648,-2.4653,-2.4712,-2.4705,-2.4744,-2.4758,-2.477,-2.4779,-2.481,-2.4827,-2.4643,-2.4643,-2.4643,0,0,-2.4818,-2.4793,-2.4805,-2.4796,-2.4782,-2.4798,-2.472,-2.4741,-2.4753,-2.4674,-2.4706,-2.4687,-2.4669,-2.4717,-2.4737,-2.4705,-2.4828,-2.478,-2.479,-2.4791,-2.482,-2.4837,-2.4853,-2.4648,-2.4647,-2.4646,0,0,-2.4933,-2.4914,-2.4951,-2.4938,-2.4917,-2.4886,-2.4895,-2.4861,-2.4846,-2.4876,-2.4818,-2.4832,-2.4847,-2.4837,-2.4834,-2.4946,-2.4902,-2.495,-2.5026,-2.5057,-2.5072,-2.5085,-2.5126,-2.5141,-2.4958,-2.4958,-2.4958,0,-2.5008,-2.5029,-2.4976,-2.5,-2.4999,-2.4928,-2.4966,-2.4956,-2.4938,-2.494,-2.4904,-2.4922,-2.4905,-2.495,-2.4978,-2.4977,-2.4987,-2.4953,-2.5074,-2.5086,-2.5097,-2.5136,-2.5151,-2.4964,-2.4963,-2.4963,-2.4962,0,-2.5123,-2.5139,-2.5172,-2.5156,-2.5158,-2.5189,-2.5142,-2.5151,-2.5115,-2.5088,-2.5121,-2.5098,-2.5098,-2.5106,-2.5072,-2.5147,-2.5128,-2.5084,-2.5021,-2.5122,-2.5157,-2.5171,-2.4973,-2.497,-2.4969,-2.4967,0,0,-2.53,-2.5255,-2.5268,-2.526,-2.5232,-2.5244,-2.5273,-2.5272,-2.5281,-2.5271,-2.5295,-2.531,-2.5269,-2.5266,-2.523,-2.5258,-2.535,-2.521,-2.5209,-2.5238,-2.5433,-2.5467,-2.5485,-2.532,-2.5322,-2.5324,-2.5435,0,-2.5408,-2.5453,-2.5407,-2.5463,-2.5478,-2.5411,-2.5436,-2.5422,-2.5398,-2.5408,-2.5381,-2.5393,-2.5338,-2.5336,-2.536,-2.5333,-2.5388,-2.5324,-2.5343,-2.5344,-2.535,-2.5503,-2.5539,-2.5644,-2.5448,-2.545,-2.5452,0,-2.554,-2.5536,-2.5594,-2.5563,-2.5567,-2.5591,-2.5587,-2.5597,-2.5581,-2.5561,-2.5558,-2.5515,-2.5542,-2.548,-2.5518,-2.5476,-2.5481,-2.5469,-2.5472,-2.5473,-2.5405,-2.5509,-2.5676,-2.5693,-2.5473,-2.5471,-2.547,0,-2.5665,-2.5674,-2.571,-2.5705,-2.567,-2.5689,-2.5675,-2.5655,-2.5658,-2.5655,-2.5657,-2.5657,-2.5658,-2.566,-2.5619,-2.5577,-2.5663,-2.5597,-2.5648,-2.565,-2.567,-2.5669,-2.5842,-2.5672,-2.5671,-2.5671,-2.5671,0,-2.5791,-2.5829,-2.5766,-2.5788,-2.5829,-2.5775,-2.5818,-2.5797,-2.5781,-2.5799,-2.5741,-2.576,-2.5703,-2.5716,-2.5683,-2.5721,-2.5721,-2.5707,-2.5698,-2.5713,-2.5715,-2.5716,-2.5708,-2.5675,-2.5674,-2.5673,-2.5673,0,-2.5938,-2.5897,-2.5931,-2.5895,-2.5887,-2.5919,-2.5889,-2.5909,-2.588,-2.5904,-2.5907,-2.5863,-2.5875,-2.5834,-2.5839,-2.5817,-2.5873,-2.5851,-2.5878,-2.5872,-2.5926,-2.5922,-2.6106,-2.6128,-2.5943,-2.5945,-2.5946,0,-2.6022,-2.6049,-2.6016,-2.6024,-2.6013,-2.6026,-2.6028,-2.5978,-2.5983,-2.5967,-2.5989,-2.5997,-2.6,-2.6023,-2.5992,-2.5997,-2.5976,-2.604,-2.5976,-2.599,-2.5978,-2.5978,-2.5981,-2.6053,-2.6056,-2.6057,-2.6059,0,-2.6175,-2.6154,-2.6159,-2.6158,-2.6163,-2.616,-2.6153,-2.6162,-2.6108,-2.6117,-2.6128,-2.6131,-2.6137,-2.6145,-2.6143,-2.613,-2.6087,-2.6079,-2.6091,-2.6107,-2.6122,-2.6116,-2.5915,-2.6075,-2.6074,-2.6072,-2.6072,-2.6071,-2.6293,-2.6315,-2.6296,-2.6304,-2.6294,-2.6289,-2.6306,-2.628,-2.6288,-2.6288,-2.6258,-2.6276,-2.6261,-2.6253,-2.6245,-2.6259,-2.623,-2.6247,-2.6252,-2.6257,-2.6267,-2.6119,-2.6258,-2.6258,-2.6257,-2.6257,-2.6257,0,-2.6445,-2.6429,-2.6437,-2.6429,-2.6437,-2.6394,-2.6384,-2.6393,-2.641,-2.6398,-2.6403,-2.6417,-2.6425,-2.6396,-2.64,-2.6417,-2.6398,-2.642,-2.6419,-2.6417,-2.6293,-2.6282,-2.6436,-2.6436,-2.6436,-2.6436,-2.6436,-2.6436,-2.6524,-2.656,-2.6536,-2.6566,-2.655,-2.6567,-2.6565,-2.6561,-2.6552,-2.657,-2.6576,-2.6557,-2.6539,-2.6541,-2.6548,-2.6539,-2.6544,-2.6574,-2.6559,-2.6443,-2.6426,-2.6409,-2.6399,-2.6575,-2.6576,-2.6682,-2.6683,-2.6684]},{"header":{"parameterUnit":"m.s-1","parameterCategory":1,"la1":30.2991,"la2":30.254,"lo1":-89.0895,"lo2":-89.0444,"dy":0.0017,"dx":0.0017,"nx":28,"ny":28,"refTime":"2023-08-29T09:00:00:Z","depth":0,"parameterNumber":3,"parameterNumberName":"V-component_of_WINDS"},"data":[0,0,0,0,0,0,0,0,0,0,0,0,0,0,0,0,0,0,0,0,0,0,0,0,0,0,0,0,0,0,0,0,0,0,0,0,0,0,0,0,0,0,0,0,0,0,0,0,0,0,0,0,0,0,0,0,0,0,-1.2992,-1.2991,0,-1.2969,-1.2969,-1.2969,-1.2946,-1.2945,-1.2945,-1.2945,-1.292,-1.292,-1.292,0,0,0,0,0,0,0,0,0,0,0,0,0,-1.3013,-1.3013,-1.2992,-1.2991,-1.2991,-1.2969,-1.2969,-1.2969,-1.2946,-1.2945,-1.2945,-1.2945,-1.2921,-1.292,-1.292,0,0,0,0,0,0,0,0,0,0,0,0,0,-1.2998,-1.3012,-1.2992,-1.2977,-1.2976,-1.2969,-1.2969,-1.2969,-1.2946,-1.2945,-1.2945,-1.2945,-1.2921,-1.292,-1.292,-1.2926,0,0,-1.2918,-1.2918,0,0,0,0,0,0,0,0,-1.2999,-1.2998,-1.2979,-1.2978,-1.2976,-1.296,-1.2968,-1.2954,-1.2946,-1.2957,-1.2945,-1.2944,-1.2934,-1.2932,-1.2929,-1.2925,-1.2924,-1.2918,-1.2918,-1.2917,-1.2917,0,0,0,0,0,0,0,-1.3,-1.2998,-1.2983,-1.2979,-1.2977,-1.2971,-1.2969,-1.2965,-1.2948,-1.2956,-1.2954,-1.2952,-1.2933,-1.293,-1.2928,-1.2923,-1.2918,-1.2918,-1.2917,-1.2917,-1.2923,-1.2923,0,0,0,0,0,0,-1.3004,-1.2999,-1.2983,-1.2982,-1.2987,-1.2971,-1.2968,-1.2966,-1.2948,-1.2945,-1.2953,-1.2951,-1.2931,-1.2929,-1.2927,-1.2934,-1.2917,-1.2917,-1.2917,-1.2923,-1.2923,-1.2924,0,0,0,0,0,0,-1.3004,-1.3002,-1.2984,-1.299,-1.2988,-1.2971,-1.2968,-1.2965,-1.2962,-1.2946,-1.2942,-1.2952,-1.293,-1.2928,-1.2927,-1.2933,-1.2917,-1.2916,-1.2922,-1.2923,-1.2923,-1.2947,0,0,0,0,0,0,-1.3005,-1.3003,-1.3005,-1.2991,-1.2987,-1.2985,-1.2969,-1.2965,-1.2961,-1.2959,-1.2945,-1.2942,-1.293,-1.2928,-1.2926,-1.2932,-1.2916,-1.2921,-1.2922,-1.2923,-1.2946,-1.2949,-1.2951,0,0,0,0,0,-1.3006,-1.3013,-1.3006,-1.3004,-1.299,-1.2985,-1.2983,-1.297,-1.2962,-1.2964,-1.2954,-1.2942,-1.2932,-1.2928,-1.2926,-1.2932,-1.2921,-1.2922,-1.2923,-1.2945,-1.2948,-1.2951,0,0,0,0,0,0,-1.3028,-1.301,-1.3003,-1.3005,-1.2997,-1.2981,-1.2984,-1.2974,-1.2967,-1.2965,-1.2948,-1.2945,-1.2946,-1.2938,-1.2933,-1.2937,-1.2925,-1.2926,-1.2942,-1.2945,-1.2948,-1.295,-1.2915,0,0,0,0,0,-1.3033,-1.3031,-1.3015,-1.3019,-1.3015,-1.3,-1.2997,-1.2988,-1.2978,-1.2975,-1.2964,-1.2955,-1.295,-1.2947,-1.2941,-1.2944,-1.2941,-1.2947,-1.295,-1.2952,-1.2953,-1.2955,-1.2958,-1.2927,-1.2927,-1.2927,0,0,-1.3044,-1.3034,-1.3034,-1.3023,-1.3016,-1.3014,-1.2997,-1.2996,-1.2994,-1.2974,-1.2973,-1.2964,-1.2953,-1.2954,-1.2954,-1.2948,-1.2961,-1.2953,-1.2955,-1.2955,-1.2957,-1.296,-1.2962,-1.2928,-1.2928,-1.2928,0,0,-1.3063,-1.3055,-1.3057,-1.305,-1.3039,-1.3029,-1.303,-1.3016,-1.301,-1.3008,-1.2993,-1.299,-1.2982,-1.2975,-1.297,-1.2986,-1.2975,-1.2984,-1.2998,-1.3,-1.3003,-1.3005,-1.3012,-1.3014,-1.2985,-1.2985,-1.2985,0,-1.3078,-1.3075,-1.306,-1.3059,-1.3055,-1.3037,-1.304,-1.3033,-1.3021,-1.3018,-1.3011,-1.3,-1.2991,-1.2991,-1.2995,-1.2991,-1.2992,-1.2986,-1.3004,-1.3006,-1.3007,-1.3014,-1.3016,-1.2986,-1.2986,-1.2986,-1.2986,0,-1.3094,-1.3091,-1.3095,-1.3084,-1.308,-1.3081,-1.3066,-1.3063,-1.3054,-1.3044,-1.3043,-1.3031,-1.3023,-1.3022,-1.3012,-1.302,-1.3017,-1.3007,-1.2995,-1.3012,-1.3018,-1.302,-1.2988,-1.2988,-1.2987,-1.2987,0,0,-1.3127,-1.3108,-1.311,-1.3105,-1.3091,-1.3089,-1.3089,-1.3082,-1.308,-1.3072,-1.3072,-1.3064,-1.3055,-1.305,-1.3039,-1.3041,-1.3055,-1.303,-1.303,-1.3037,-1.3064,-1.3073,-1.3076,-1.3047,-1.3048,-1.3048,-1.3066,0,-1.3145,-1.3145,-1.3131,-1.3134,-1.3132,-1.3115,-1.3115,-1.3106,-1.3097,-1.3094,-1.3083,-1.3079,-1.3067,-1.3064,-1.3064,-1.3053,-1.3061,-1.3052,-1.3047,-1.3047,-1.3053,-1.3079,-1.3088,-1.3106,-1.3068,-1.3068,-1.3068,0,-1.3166,-1.316,-1.3163,-1.315,-1.3148,-1.3149,-1.3141,-1.3138,-1.3128,-1.3121,-1.3115,-1.3102,-1.3101,-1.3089,-1.3087,-1.3081,-1.3078,-1.3072,-1.3072,-1.3073,-1.306,-1.3081,-1.3111,-1.3114,-1.3071,-1.3071,-1.3071,0,-1.3192,-1.3184,-1.3185,-1.3181,-1.3165,-1.3166,-1.3159,-1.3149,-1.3145,-1.3138,-1.3136,-1.3128,-1.3124,-1.3119,-1.3105,-1.3097,-1.3104,-1.3091,-1.3099,-1.31,-1.3103,-1.3103,-1.3134,-1.3099,-1.3098,-1.3098,-1.3098,0,-1.3214,-1.3217,-1.3197,-1.3198,-1.3201,-1.3184,-1.3187,-1.3179,-1.3169,-1.3168,-1.3152,-1.3151,-1.3132,-1.3128,-1.3117,-1.3118,-1.3115,-1.311,-1.3107,-1.3113,-1.3114,-1.3112,-1.3111,-1.3099,-1.3099,-1.3099,-1.3099,0,-1.3245,-1.3231,-1.3231,-1.3216,-1.3212,-1.3215,-1.3202,-1.3202,-1.3192,-1.319,-1.3189,-1.3172,-1.3168,-1.3153,-1.3144,-1.3136,-1.3141,-1.3134,-1.3145,-1.3143,-1.3153,-1.3153,-1.3185,-1.3189,-1.315,-1.315,-1.315,0,-1.3261,-1.3263,-1.3248,-1.3246,-1.324,-1.3237,-1.3234,-1.3218,-1.3215,-1.3203,-1.3205,-1.3199,-1.3193,-1.3187,-1.3174,-1.3167,-1.3161,-1.3173,-1.316,-1.3166,-1.3163,-1.3164,-1.3165,-1.3176,-1.3177,-1.3177,-1.3177,0,-1.3291,-1.3284,-1.328,-1.3274,-1.327,-1.3264,-1.3257,-1.3256,-1.3238,-1.3235,-1.3231,-1.3227,-1.3218,-1.3213,-1.3204,-1.3196,-1.3184,-1.3181,-1.3183,-1.3189,-1.3196,-1.3194,-1.3154,-1.3181,-1.3181,-1.318,-1.318,-1.318,-1.3315,-1.3317,-1.3307,-1.3303,-1.3296,-1.329,-1.3289,-1.3279,-1.3275,-1.3267,-1.3257,-1.3254,-1.3243,-1.323,-1.3224,-1.3221,-1.3214,-1.3216,-1.3217,-1.3219,-1.3222,-1.3195,-1.3219,-1.3219,-1.3219,-1.3218,-1.3218,0,-1.3346,-1.3339,-1.3335,-1.3326,-1.3323,-1.3312,-1.3303,-1.3302,-1.3299,-1.329,-1.3286,-1.328,-1.3275,-1.3261,-1.3254,-1.3255,-1.3249,-1.3254,-1.3254,-1.3253,-1.3227,-1.3227,-1.3259,-1.3259,-1.3259,-1.3259,-1.3258,-1.3258,-1.3362,-1.3364,-1.3356,-1.3354,-1.3346,-1.3344,-1.334,-1.3334,-1.3327,-1.3323,-1.3318,-1.3309,-1.3299,-1.3291,-1.3286,-1.3282,-1.3281,-1.3287,-1.3282,-1.3258,-1.3255,-1.3251,-1.3251,-1.3287,-1.3287,-1.3308,-1.3308,-1.3308]}]]